Lake Lanier Weather Center

Moon Phase Calendar



Lake Lanier Water Level
Online Cameras

 


      

Current Conditions in Olde Federal Pointe
11/30/2022 6:32:32 PM

49°F
Feels Like 44
Clear
Humidity
47%
Pressure
30.18"
Wind
11.5 mph (NW)
Dew Point
30°F
UV Index
0/10 (Low)
Visibility
6 mi

Hourly Forecast

Date & Time Wed, Nov 30
6:00 PM
Wed, Nov 30
7:00 PM
Wed, Nov 30
8:00 PM
Wed, Nov 30
9:00 PM
Wed, Nov 30
10:00 PM
Wed, Nov 30
11:00 PM
Thu, Dec 1
12:00 AM
Thu, Dec 1
1:00 AM
Thu, Dec 1
2:00 AM
Thu, Dec 1
3:00 AM
Thu, Dec 1
4:00 AM
Thu, Dec 1
5:00 AM
Thu, Dec 1
6:00 AM
Thu, Dec 1
7:00 AM
Thu, Dec 1
8:00 AM
Thu, Dec 1
9:00 AM
Thu, Dec 1
10:00 AM
Thu, Dec 1
11:00 AM
Thu, Dec 1
12:00 PM
Thu, Dec 1
1:00 PM
Thu, Dec 1
2:00 PM
Thu, Dec 1
3:00 PM
Thu, Dec 1
4:00 PM
Thu, Dec 1
5:00 PM
Thu, Dec 1
6:00 PM
Thu, Dec 1
7:00 PM
Thu, Dec 1
8:00 PM
Thu, Dec 1
9:00 PM
Thu, Dec 1
10:00 PM
Thu, Dec 1
11:00 PM
Fri, Dec 2
12:00 AM
Fri, Dec 2
1:00 AM
Fri, Dec 2
2:00 AM
Fri, Dec 2
3:00 AM
Fri, Dec 2
4:00 AM
Fri, Dec 2
5:00 AM
Fri, Dec 2
6:00 AM
Fri, Dec 2
7:00 AM
Fri, Dec 2
8:00 AM
Fri, Dec 2
9:00 AM
Fri, Dec 2
10:00 AM
Fri, Dec 2
11:00 AM
Fri, Dec 2
12:00 PM
Fri, Dec 2
1:00 PM
Fri, Dec 2
2:00 PM
Fri, Dec 2
3:00 PM
Fri, Dec 2
4:00 PM
Fri, Dec 2
5:00 PM
Condition
Clear

Clear

Clear

Clear

Clear

Clear

Clear

Clear

Clear

Clear

Clear

Clear

Clear

Clear

Clouds

Clouds

Clouds

Clouds

Clouds

Clouds

Clouds

Clouds

Clouds

Clouds

Clouds

Clouds

Clouds

Clouds

Clouds

Clouds

Clouds

Clouds

Clouds

Clouds

Clouds

Clouds

Clouds

Clouds

Clouds

Clouds

Clouds

Clouds

Clouds

Clouds

Clouds

Clouds

Clouds

Clouds
Temperature 48°F49°F47°F45°F43°F40°F36°F35°F34°F33°F32°F31°F31°F31°F33°F39°F44°F48°F51°F52°F52°F52°F51°F46°F43°F41°F40°F40°F39°F38°F37°F36°F36°F36°F35°F35°F34°F34°F36°F41°F45°F48°F51°F53°F55°F55°F54°F51°F
Feels Like 44°F45°F43°F41°F38°F34°F30°F29°F27°F27°F27°F27°F27°F28°F31°F37°F42°F46°F47°F49°F49°F49°F48°F45°F40°F38°F37°F37°F35°F34°F34°F33°F32°F31°F31°F30°F30°F30°F32°F37°F40°F45°F48°F51°F53°F53°F53°F49°F
Cloudiness 1%0%0%0%0%0%0%0%0%0%1%3%4%5%76%48%38%40%34%41%100%100%100%100%100%99%100%100%100%100%97%95%98%82%63%52%52%45%93%96%95%96%94%92%60%76%84%87%
Visibility 6 mi6 mi6 mi6 mi6 mi6 mi6 mi6 mi6 mi6 mi6 mi6 mi6 mi6 mi6 mi6 mi6 mi6 mi6 mi6 mi6 mi6 mi6 mi6 mi6 mi6 mi6 mi6 mi6 mi6 mi6 mi6 mi6 mi6 mi6 mi6 mi6 mi6 mi6 mi6 mi6 mi6 mi6 mi6 mi6 mi6 mi6 mi6 mi
Precipitation 0%0%0%0%0%0%0%0%0%0%0%0%0%0%0%0%0%0%0%0%0%0%0%0%0%0%0%0%0%0%0%0%0%0%0%0%0%0%0%0%0%0%0%0%0%0%0%0%
Humidity 50%47%50%51%52%52%53%56%59%61%62%62%60%59%55%45%38%36%37%39%41%44%52%63%67%67%65%66%68%70%71%73%74%75%76%77%77%77%72%61%51%49%51%55%59%62%68%79%
Dew Point 31°F30°F30°F29°F27°F25°F21°F20°F21°F20°F20°F19°F19°F18°F19°F19°F20°F22°F25°F28°F29°F31°F34°F34°F32°F31°F29°F29°F29°F29°F28°F28°F28°F28°F28°F28°F28°F28°F28°F28°F28°F29°F33°F37°F40°F42°F44°F44°F
Pressure 30.18"30.18"30.21"30.24"30.27"30.3"30.36"30.36"30.36"30.39"30.39"30.39"30.42"30.45"30.47"30.47"30.47"30.47"30.45"30.45"30.42"30.42"30.45"30.45"30.47"30.47"30.5"30.5"30.5"30.5"30.5"30.5"30.5"30.5"30.5"30.5"30.5"30.53"30.53"30.53"30.5"30.5"30.47"30.42"30.39"30.36"30.36"30.39"
Wind Speed 9.6 mph9.1 mph8.5 mph8.6 mph8.3 mph8.1 mph7.9 mph7.4 mph7.4 mph6.6 mph5.3 mph4.2 mph3.9 mph3.5 mph3.4 mph3.4 mph4.1 mph4.6 mph4.6 mph4.7 mph4.9 mph4.7 mph4 mph3.7 mph4.2 mph4.5 mph4.6 mph4.4 mph4.6 mph4.9 mph4.5 mph4.6 mph4.8 mph4.8 mph4.8 mph5 mph5.3 mph4.8 mph4.5 mph6.1 mph8.1 mph6 mph6.8 mph6.6 mph7.1 mph7.5 mph6.5 mph5.2 mph
Wind
Direction
318°
NW
319°
NW
315°
NW
316°
NW
318°
NW
317°
NW
317°
NW
315°
NW
317°
NW
325°
NW
330°
NNW
341°
NNW
351°
N

N
24°
NNE
59°
ENE
83°
E
98°
E
116°
ESE
132°
SE
138°
SE
139°
SE
120°
ESE
101°
E
99°
E
93°
E
87°
E
75°
ENE
69°
ENE
71°
ENE
71°
ENE
72°
ENE
76°
ENE
74°
ENE
69°
ENE
69°
ENE
64°
ENE
62°
ENE
54°
NE
70°
ENE
92°
E
96°
E
96°
E
103°
ESE
114°
ESE
119°
ESE
111°
ESE
93°
E

Daily Forecast

Date High Low Precip. Humidity
Today
Nov 30

Rain
61 °F
40 °F
100%
82%
Thursday
Dec 1

Clouds
52 °F
31 °F
0%
37%
Friday
Dec 2

Clouds
54 °F
34 °F
0%
55%
Saturday
Dec 3

Rain
57 °F
48 °F
99%
98%
Sunday
Dec 4

Rain
52 °F
45 °F
100%
91%
Monday
Dec 5

Rain
54 °F
48 °F
100%
97%
Tuesday
Dec 6

Rain
65 °F
54 °F
92%
89%
Wednesday
Dec 7

Rain
67 °F
58 °F
100%
81%
Thursday
Dec 8

Rain
65 °F
54 °F
100%
60%
Friday
Dec 9

Rain
58 °F
56 °F
100%
98%
Saturday
Dec 10

Clouds
58 °F
51 °F
2%
73%
Sunday
Dec 11

Rain
48 °F
40 °F
39%
87%
Monday
Dec 12

Rain
52 °F
41 °F
100%
81%
Tuesday
Dec 13

Clouds
55 °F
37 °F
0%
60%
Wednesday
Dec 14

Clouds
60 °F
41 °F
0%
55%
Thursday
Dec 15

Rain
59 °F
51 °F
93%
98%

Temperature 8-14 Day Outlook



Precipitation 8-14 Day Outlook






About Us
Contact Us
Site Map
Search Site
Advertise With Us
   
www.DiscoverLanier.com
THE LAKE LANIER WEBSITE

Copyright 2022, Lakes Online
Privacy    |    Legal